www.pogodaiklimat.ru

Погода и климат >> Архив погоды >> Россия >> Якутия >> Оленек


АРХИВ ПОГОДЫ в Оленеке

Время (UTC), дата Ветер
(напр.,м/с)
 
Видим.   Явления Облачность Т
(С)
Тd
(С)
f
(%)
Тe
(С)
Тes
(С)
Комфортность P
(гПа)
Po
(гПа)
Тmin
(С)
Tmax
(С)
R
(мм)
R24
(мм)
S
(см)
03 14.05 СВ 7-12
{16}
2000 м слаб. ливневой снег {метель} 10/8 240 м
[Cb cap As op]
-6.0 -7.9 86 -15 -14 1016.0 988.0
06 14.05 СВ 4
{12}
50 км в посл. час ливневой снег {метель} 10/8 420 м
[Cb cap Ac As]
-4.1 -6.7 82 -10 -10 1017.1 989.2
09 14.05 В 7-10
{11}
50 км позёмок 10/8 500 м
[Cb cap Ac As]
-2.0 -5.5 77 -9 -9 1017.2 989.5
12 14.05 СВ 6
{10}
50 км позёмок 10/8 420 м
[Cb cap Ac As]
-2.3 -4.5 85 -9 -9 1018.0 990.3 -1.8 2
15 14.05 СВ 6
{10}
н/о н/о -3.3 -8.3 68 -10 -10 1018.5 990.7
18 14.05 С 2
{12}
н/о н/о -6.7 -10.0 77 -11 -11 1019.4 991.2
21 14.05 СВ 5 н/о н/о -9.8 -13.0 77 -18 -18 1019.9 991.3
00 15.05 С 5 20 км слаб. снег 10/5 300 м
[Sc As op]
-10.2 -13.8 75 -18 -18 1020.6 992.0 -10.4 0.2 39
03 15.05 С 5 50 км {снег} 10/4 600 м
[Sc Ac und]
-7.7 -12.7 67 -15 -14 1020.1 991.7
06 15.05 С 7 50 км позёмок {снег} 10/0
[Ac und]
-5.5 -11.6 62 -14 -13 1019.7 991.6
09 15.05 СВ 6
{10}
50 км позёмок 10/3 1000 м
[Sc Ac und]
-4.3 -9.8 65 -12 -11 1020.0 992.0
12 15.05 С 6
{10}
н/о н/о -5.2 -11.3 62 -13 -13 1020.8 992.7 -4.2
15 15.05 С 5
{10}
н/о н/о -8.8 -13.3 70 -16 -16 1022.7 994.2
18 15.05 С 6 н/о н/о -9.4 -12.7 77 -18 -18 1022.8 994.2
21 15.05 СВ 2 н/о н/о -9.7 -13.2 76 -14 -14 1023.1 994.5
00 16.05 С 6 50 км {метель} 10/6 500 м
[Sc Ac und]
-8.3 -12.5 72 -16 -16 1023.0 994.5 -10.1 37
03 16.05 СВ 4 50 км 9/6 750 м
[Sc Ci fib]
-6.4 -11.9 65 -13 -11 1022.7 994.4
06 16.05 СВ 5 50 км 8/4 600 м
[Sc diur, vesp Cs]
-5.1 -11.5 61 -12 -9 1022.3 994.2
09 16.05 СВ 5 50 км 10/0
[As op Cs]
-4.3 -11.3 58 -11 -10 1022.2 994.2
12 16.05 СВ 6 н/о н/о -4.5 -11.1 60 -12 -12 1022.7 994.6 -4.2
15 16.05 С 3 н/о н/о -6.2 -11.3 67 -12 -12 1023.9 995.6
18 16.05 СВ 4 н/о н/о -8.5 -12.4 73 -15 -15 1024.4 995.8
21 16.05 СВ 4 н/о н/о -9.8 -13.0 77 -17 -17 1024.9 996.2
00 17.05 СВ 5 50 км 10/4
[Sc Ci fib]
-9.8 -13.9 72 -18 -16 1025.4 996.7 -10.3 37
03 17.05 СВ 4 50 км 6/0
[Ac As]
-6.9 -13.7 58 -13 -10 1025.4 997.0
06 17.05 С 5 50 км 8/0
[Ac As Ci sp]
-5.1 -12.0 58 -12 -9 1025.2 997.0
09 17.05 С 5 50 км 8/0
[Ac trans Ci sp]
-3.5 -11.0 56 -10 -8 1025.5 997.4
12 17.05 СВ 3 н/о н/о -3.6 -11.2 56 -8 -8 1026.2 998.1 -3.2
15 17.05 СВ 3 н/о н/о -6.5 -12.7 61 -12 -12 1027.2 998.8
18 17.05 СВ 4 н/о н/о -8.4 -13.1 69 -15 -15 1027.9 999.3
21 17.05 СВ 3 н/о н/о -10.3 -13.5 77 -16 -16 1029.0 1000.1
00 18.05 С 4 н/о н/о -9.6 -13.5 73 -16 -16 1029.3 1000.5 -10.7
03 18.05 С 3 н/о н/о -6.3 -13.1 59 -12 -12 1028.6 1000.2
06 18.05 СВ 3 н/о н/о -3.4 -12.1 51 -8 -8 1027.5 999.4
09 18.05 СВ 3 н/о н/о -2.1 -11.6 48 -6 -6 1026.8 998.8
12 18.05 СВ 4 н/о н/о -2.2 -12.1 47 -7 -7 1026.6 998.6 -1.8
15 18.05 С 2 н/о н/о -5.4 -13.0 55 -9 -9 1026.7 998.4
18 18.05 СВ 4 н/о н/о -8.0 -13.7 64 -15 -15 1026.6 998.1
21 18.05 СВ 1 н/о н/о -8.7 -13.8 67 -11 -11 1026.5 997.9
00 19.05 С 2 н/о н/о -7.0 -13.3 61 -11 -11 1025.9 997.5 -9.3
03 19.05 С 1 н/о н/о -3.7 -12.5 50 -5 -5 1024.1 996.1
06 19.05 С 2 н/о н/о -1.8 -11.9 46 -5 -5 1022.2 994.4
09 19.05 С 1 н/о н/о -0.1 -11.8 41 -1 -1 1020.6 993.0
12 19.05 С 2 н/о н/о -0.4 -12.5 40 -3 -3 1019.4 991.8 +0.3
15 19.05 СВ 3 н/о н/о -3.0 -13.3 45 -7 -7 1018.4 990.6
18 19.05 В 1 н/о н/о -4.7 -13.8 49 -6 -6 1017.7 989.7
21 19.05 З 1 н/о н/о -5.9 -13.5 55 -8 -8 1016.7 988.7
00 20.05 В 3 50 км 10/0
[Ac lent Ci sp]
-3.3 -12.2 50 -8 -5 1015.3 987.5 -6.4 36
03 20.05 штиль 0 50 км 10/0
[Ac As Ci sp]
+3.5 -11.3 33 +3 +11 опасность
простуды
1013.3 986.3
06 20.05 С 2 50 км 10/3 1000 м
[Cu hum Ci sp]
+3.4 -8.7 41 +1 +7 1012.1 985.1
09 20.05 СВ 3 50 км 8/3 1000 м
[Cu hum Ci sp]
+4.3 -7.6 42 +1 +4 1011.0 984.1
12 20.05 СВ 3 50 км 3/0
[Ac lent Ci fib]
+4.6 -8.6 38 +2 +3 1010.4 983.6 +4.9
15 20.05 СВ 5 н/о н/о +1.1 -10.1 43 -4 -4 1010.5 983.3
18 20.05 В 2 н/о н/о -1.2 -11.4 46 -4 -4 1010.1 982.7
21 20.05 В 2 н/о н/о -0.6 -11.0 45 -4 -4 1008.7 981.4
00 21.05 В 4 50 км 8/0
[Ci sp]
+3.2 -8.6 42 -1 +2 1006.7 979.8 -1.5 35

 

Местоположение метеостанции Оленек (Якутия, Россия): широта 68.50 долгота 112.40 высота над уровнем моря 220 м.

В архиве по умолчанию представлена погода в Оленеке за последнюю неделю. Архивные данные за месяц целиком и за предыдущие месяцы, начиная с января 2011 года, Вы можете получить, выбрав интересующий диапазон дат из раскрывающегося списка и нажав кнопку "Ввод!".


*Определитесь, кто Вы:
робот инопланетянин человек

Внимание! Время в таблицах - всемирное. Для получения местного времени необходимо прибавить поправку, которая равна 9 ч.

Смотрите также архив погоды в соседних городах и на ближайших метеорологических станциях:

Погода в Джалинде (Якутия, Россия) (191 км)
Погода в Полярном (Якутия, Россия) (197 км)
Погода в Ярольине (Якутия, Россия) (224 км)
Погода в Сухане (Якутия, Россия) (240 км)
Погода в Шелагонцах (Якутия, Россия) (262 км)
Погода в Айхале (Якутия, Россия) (289 км)
Погода в Эйке (Якутия, Россия) (349 км)
Погода в Саскылахе (Якутия, Россия) (391 км)
Погода в Хабардино (Якутия, Россия) (434 км)
Погода в Джарджане (Якутия, Россия) (470 км)

Пояснения к столбцам:

Ветер - указаны скорость ветра в м/с - средняя за 10 мин, порывы в срок и между сроками (в фигурных скобках) и направление, откуда дует ветер: С - северный, СВ - северо-восточный, В - восточный, ЮВ - юго-восточный, Ю - южный, ЮЗ - юго-западный, З - западный, СЗ - северо-западный.
Видимость - горизонтальная дальность видимости в метрах или километрах. При видимости от 1 до 10 км при отсутствии осадков обычно наблюдается дымка, при ухудшении видимости до 1 км и менее - туман. В сухую погоду видимость может ухудшаться дымом, пылью или мглою.
Явления - указаны атмосферные явления, наблюдавшиеся в срок или в последний час перед сроком; фигурными скобками обозначены явления, наблюдавшиеся между сроками (за 1-3 часа до срока); квадратными скобками обозначены град или гололедные отложения с указанием их диаметра в мм.
Облачность - указаны через наклонную черту общая и нижняя облачность в баллах и высота нижней границы облаков в метрах; квадратными скобками обозначены формы облаков: Ci - перистые, Cs - перисто-слоистые, Cc - перисто-кучевые, Ac - высококучевые, As - высокослоистые, Sc - слоисто-кучевые, Ns - слоисто-дождевые, Cu - кучевые, Cb - кучево-дождевые. Подробнее классификацию облаков см. в Атласе облаков (PDF).
T - Температура воздуха - температура, измеренная на высоте 2 м над землей.
Td - Температура точки росы - температура, при понижении до которой содержащийся в воздухе водяной пар достигнет насыщения.
f - Относительная влажность воздуха - влажноcть воздуха, измеренная на высоте 2 м над землей.
Te - Эффективная температура - температура, которую ощущает одетый по сезону человек в тени. Характеристика душности погоды. При расчете учитывается влияние влажности воздуха и скорости ветра на теплоощущения человека.
Tes - Эффективная температура на солнце - температура, которую ощущает человек, с поправкой на солнечный нагрев. Характеристика знойности погоды. Зависит от высоты солнца над горизонтом, облачности и скорости ветра. Ночью, в пасмурную погоду, а также при ветре 12 м/с и более поправка равна нулю.
P - Атмосферное давление - приведенное к уровню моря атмосферное давление.
Po - Атмосферное давление - измеренное на уровне метеостанции атмосферное давление.
Tmin - Минимальная температура - минимум температуры воздуха на высоте 2 м над землей.
Tmax - Максимальная температура - максимум температуры воздуха на высоте 2 м над землей.
R - Количество осадков - Количество выпавших осадков за период времени, мм. При наведении курсора мыши на число - период времени, за который выпало указанное количество осадков.
R24 - Количество осадков - Количество выпавших осадков за 24 часа, мм.
S - Снежный покров - Высота снежного покрова, см. При наведении курсора мыши на число - состояние снежного покрова и степень покрытия местности в баллах.